EW7868 Weather Reports


Display with metric or nautical units.
time (UTC)temp
F
wind
direction
speed
MPH
gust
MPH
rain 1hr
in
rain 24hr
in
rain mn
in
humidity
%
barometer
mb
20210727080810 69 278 0.0 0.0 0.00 0.00 0.00 89 1015.4
20210727080310 69 188 0.0 0.0 0.00 0.00 0.00 90 1015.6
20210727075809 69 172 0.0 0.0 0.00 0.00 0.00 89 1015.9
20210727075307 69 172 0.0 0.0 0.00 0.00 0.00 88 1015.7
20210727074806 69 172 0.0 0.0 0.00 0.00 0.00 87 1015.7
20210727074304 70 285 0.0 0.0 0.00 0.00 0.00 88 1015.8
20210727073801 69 285 0.0 0.0 0.00 0.00 0.00 89 1016.2
20210727073301 69 285 0.0 0.0 0.00 0.00 0.00 90 1016.0
20210727072800 69 285 0.0 0.0 0.00 0.00 0.00 90 1016.0
20210727072259 69 285 0.0 0.0 0.00 0.00 0.00 90 1016.0
20210727071758 69 285 0.0 0.0 0.00 0.00 0.00 90 1016.0
20210727071257 69 285 0.0 0.0 0.00 0.00 0.00 90 1016.1
20210727070756 69 285 0.0 0.0 0.00 0.00 0.00 89 1016.3
20210727070256 70 285 0.0 0.0 0.00 0.00 0.00 88 1015.7
20210727065754 70 285 0.0 0.0 0.00 0.00 0.00 88 1016.0
20210727065253 70 285 0.0 0.0 0.00 0.00 0.00 88 1016.1
20210727064752 70 285 0.0 0.0 0.00 0.00 0.00 88 1016.1
20210727064251 70 285 0.0 0.0 0.00 0.00 0.00 88 1016.2
20210727063750 70 285 0.0 0.0 0.00 0.00 0.00 87 1016.3
20210727063231 70 285 0.0 0.0 0.00 0.00 0.00 86 1016.2
20210727062731 70 285 0.0 0.0 0.00 0.00 0.00 87 1016.4
20210727062231 71 285 0.0 0.0 0.00 0.00 0.00 86 1016.3
20210727061729 71 285 0.0 0.0 0.00 0.00 0.00 85 1016.5
20210727061227 71 285 0.0 0.0 0.00 0.00 0.00 85 1016.5
20210727060726 71 285 0.0 0.0 0.00 0.00 0.00 86 1016.6
20210727060221 71 285 0.0 0.0 0.00 0.00 0.00 87 1016.3
20210727055720 71 285 0.0 0.0 0.00 0.00 0.00 86 1016.4
20210727055219 71 285 0.0 0.0 0.00 0.00 0.00 85 1016.1
20210727054719 71 285 0.0 0.0 0.00 0.00 0.00 83 1016.2
20210727054219 72 285 0.0 0.0 0.00 0.00 0.00 82 1016.2
20210727053715 72 285 0.0 0.0 0.00 0.00 0.00 82 1016.1
20210727053215 72 285 0.0 0.0 0.00 0.00 0.00 82 1016.1
20210727052714 72 285 0.0 0.0 0.00 0.00 0.00 81 1016.2
20210727052213 72 285 0.0 0.0 0.00 0.00 0.00 81 1016.3
20210727051713 73 285 0.0 0.0 0.00 0.00 0.00 79 1016.1
20210727051212 73 285 0.0 0.0 0.00 0.00 0.00 79 1016.3
20210727050710 73 270 0.0 0.0 0.00 0.00 0.00 79 1015.9
20210727050209 73 270 0.0 0.0 0.00 0.00 0.00 79 1016.0
20210727045708 74 270 0.0 0.0 0.00 0.00 0.00 78 1016.0
20210727045205 74 270 0.0 0.0 0.00 0.00 0.00 78 1016.0
20210727044704 74 157 0.0 2.0 0.00 0.00 0.00 77 1015.9
20210727044202 74 114 0.0 0.0 0.00 0.00 0.00 78 1016.0
20210727043702 74 114 0.0 0.0 0.00 0.00 0.00 77 1015.9
20210727043201 74 114 0.0 2.0 0.00 0.00 0.00 76 1016.1
20210727042700 74 109 0.0 0.0 0.00 0.00 0.00 76 1015.7
20210727042200 74 109 0.0 1.0 0.00 0.00 0.00 77 1015.4
20210727041658 74 261 0.0 0.0 0.00 0.00 0.00 77 1015.7
20210727041158 74 261 0.0 0.0 0.00 0.00 0.00 77 1015.8
20210727040656 74 261 0.0 0.0 0.00 0.00 0.00 78 1015.6
20210727040154 74 111 0.0 0.0 0.00 0.00 0.00 78 1015.6
20210727035653 75 111 0.0 1.0 0.00 0.00 0.00 78 1015.6
20210727035153 74 166 0.0 0.0 0.00 0.00 0.00 79 1015.6
20210727034650 75 166 0.0 0.0 0.00 0.00 0.00 78 1015.3
20210727034149 75 166 0.0 0.0 0.00 0.00 0.00 78 1015.3
20210727033649 76 188 0.0 0.0 0.00 0.00 0.00 78 1015.3
20210727033148 76 270 0.0 0.0 0.00 0.00 0.00 77 1015.6
20210727032646 76 263 0.0 1.0 0.00 0.00 0.00 76 1015.6
20210727032143 77 173 0.0 3.0 0.00 0.00 0.00 75 1015.3
20210727031642 77 173 0.0 1.0 0.00 0.00 0.00 75 1015.6
20210727031142 77 165 0.0 0.0 0.00 0.00 0.00 75 1015.8
20210727030640 77 279 0.0 1.0 0.00 0.00 0.00 75 1015.6
20210727030131 77 270 0.0 1.0 0.00 0.00 0.00 77 1015.3
20210727025631 77 187 0.0 0.0 0.00 0.00 0.00 76 1015.6
20210727025130 77 187 0.0 1.0 0.00 0.00 0.00 76 1015.3
20210727024629 77 188 0.0 2.0 0.00 0.00 0.00 76 1015.6
20210727024128 77 164 0.0 2.0 0.00 0.00 0.00 76 1015.6
20210727023627 77 186 0.0 0.0 0.00 0.00 0.00 76 1015.6
20210727023126 77 186 0.0 0.0 0.00 0.00 0.00 75 1015.6
20210727022625 77 186 0.0 0.0 0.00 0.00 0.00 73 1015.3
20210727022124 77 186 0.0 0.0 0.00 0.00 0.00 73 1015.6
20210727021620 77 186 0.0 0.0 0.00 0.00 0.00 73 1015.3
20210727021120 77 186 0.0 0.0 0.00 0.00 0.00 72 1015.1
20210727020616 78 186 0.0 0.0 0.00 0.00 0.00 71 1015.2
20210727020114 78 166 0.0 0.0 0.00 0.00 0.00 71 1015.1
20210727015612 77 166 0.0 1.0 0.00 0.00 0.00 72 1015.1
20210727015111 78 180 0.0 0.0 0.00 0.00 0.00 71 1014.8
20210727014611 78 180 0.0 0.0 0.00 0.00 0.00 70 1015.3
20210727014109 78 187 0.0 2.0 0.00 0.00 0.00 68 1015.1
20210727013608 79 165 0.0 0.0 0.00 0.00 0.00 67 1014.9
20210727013106 79 165 0.0 0.0 0.00 0.00 0.00 67 1015.0
20210727012557 80 165 0.0 0.0 0.00 0.00 0.00 67 1015.1
20210727012043 81 165 1.0 2.0 0.00 0.00 0.00 65 1015.1
20210727011543 82 278 0.0 2.0 0.00 0.00 0.00 61 1014.9
20210727011041 82 270 0.0 1.0 0.00 0.00 0.00 60 1014.8
20210727010540 82 278 0.0 1.0 0.00 0.00 0.00 60 1014.6
20210727010039 83 286 1.0 2.0 0.00 0.00 0.00 60 1015.0
20210727005537 83 286 0.0 2.0 0.00 0.00 0.00 59 1014.6
20210727005035 83 278 0.0 3.0 0.00 0.00 0.00 59 1014.7
20210727004535 84 282 2.0 3.0 0.00 0.00 0.00 59 1014.6
20210727004034 84 270 1.0 3.0 0.00 0.00 0.00 58 1014.8
20210727003530 85 286 0.0 2.0 0.00 0.00 0.00 58 1014.8
20210727003029 85 266 0.0 3.0 0.00 0.00 0.00 57 1014.7
20210727002527 85 270 2.0 4.0 0.00 0.00 0.00 57 1015.0
20210727002027 86 275 2.0 2.0 0.00 0.00 0.00 57 1014.7
20210727001527 86 249 0.0 2.0 0.00 0.00 0.00 56 1014.8
20210727001027 86 279 1.0 3.0 0.00 0.00 0.00 56 1015.0
20210727000526 87 270 0.0 2.0 0.00 0.00 0.00 55 1014.8
20210727000024 87 337 3.0 3.0 0.00 0.00 0.00 55 1015.0
20210726235524 87 255 3.0 3.0 0.00 0.00 0.00 54 1014.7
20210726235021 87 291 0.0 3.0 0.00 0.00 0.00 55 1015.0
20210726234519 88 300 1.0 3.0 0.00 0.00 0.00 53 1014.9
20210726234018 88 254 1.0 3.0 0.00 0.00 0.00 54 1014.9
20210726233517 88 261 0.0 3.0 0.00 0.00 0.00 53 1014.9
20210726233016 88 341 2.0 4.0 0.00 0.00 0.00 52 1015.0
20210726232514 88 344 2.0 3.0 0.00 0.00 0.00 50 1014.9
20210726232014 89 270 1.0 3.0 0.00 0.00 0.00 51 1014.9
20210726231512 89 322 2.0 3.0 0.00 0.00 0.00 50 1015.0
20210726231011 89 300 2.0 4.0 0.00 0.00 0.00 49 1015.2
20210726230509 89 270 2.0 3.0 0.00 0.00 0.00 50 1014.9
20210726230010 89 270 0.0 3.0 0.00 0.00 0.00 49 1014.9
20210726225510 89 288 3.0 4.0 0.00 0.00 0.00 47 1014.8
20210726225008 89 357 2.0 4.0 0.00 0.00 0.00 48 1015.1
20210726224506 89 264 2.0 3.0 0.00 0.00 0.00 50 1015.0
20210726224004 89 270 2.0 3.0 0.00 0.00 0.00 47 1015.0
20210726223503 90 270 2.0 4.0 0.00 0.00 0.00 46 1014.9
20210726223001 91 257 1.0 2.0 0.00 0.00 0.00 46 1014.9
20210726222459 90 291 3.0 4.0 0.00 0.00 0.00 46 1015.0
20210726221956 90 331 1.0 3.0 0.00 0.00 0.00 47 1015.1
20210726221454 91 162 0.0 4.0 0.00 0.00 0.00 48 1015.1
20210726220953 91 165 1.0 5.0 0.00 0.00 0.00 47 1014.9
20210726220452 91 270 0.0 5.0 0.00 0.00 0.00 46 1015.0
20210726215948 91 280 2.0 4.0 0.00 0.00 0.00 44 1015.2
20210726215446 91 282 2.0 5.0 0.00 0.00 0.00 44 1014.9
20210726214946 91 315 3.0 4.0 0.00 0.00 0.00 44 1015.1
20210726214445 90 170 3.0 7.0 0.00 0.00 0.00 45 1015.3
20210726213944 91 206 0.0 5.0 0.00 0.00 0.00 44 1015.4
20210726213442 91 174 1.0 4.0 0.00 0.00 0.00 42 1015.3
20210726212939 92 290 2.0 4.0 0.00 0.00 0.00 43 1015.1
20210726212438 91 186 3.0 4.0 0.00 0.00 0.00 43 1015.4
20210726211937 91 309 6.0 6.0 0.00 0.00 0.00 43 1015.2
20210726211436 91 180 2.0 5.0 0.00 0.00 0.00 45 1015.3
20210726210932 91 270 4.0 5.0 0.00 0.00 0.00 43 1015.7
20210726210426 91 206 3.0 5.0 0.00 0.00 0.00 46 1015.6
20210726205925 91 154 0.0 5.0 0.00 0.00 0.00 44 1015.8
20210726205423 91 278 1.0 3.0 0.00 0.00 0.00 46 1015.6
20210726204921 91 258 3.0 5.0 0.00 0.00 0.00 42 1015.7
20210726204422 91 300 1.0 4.0 0.00 0.00 0.00 42 1015.7
20210726203920 92 241 2.0 3.0 0.00 0.00 0.00 44 1015.6
20210726203419 90 276 2.0 4.0 0.00 0.00 0.00 41 1015.8
20210726202918 91 287 4.0 5.0 0.00 0.00 0.00 42 1015.9
20210726202417 90 266 3.0 5.0 0.00 0.00 0.00 42 1015.6
20210726201913 92 161 2.0 3.0 0.00 0.00 0.00 43 1015.8
20210726201412 91 253 2.0 5.0 0.00 0.00 0.00 40 1015.6
20210726200911 91 293 2.0 4.0 0.00 0.00 0.00 41 1015.3
20210726200400 91 279 0.0 3.0 0.00 0.00 0.00 41 1015.7
20210726195900 91 289 2.0 3.0 0.00 0.00 0.00 43 1015.7
20210726195359 90 282 2.0 6.0 0.00 0.00 0.00 45 1015.8
20210726194857 90 318 3.0 5.0 0.00 0.00 0.00 41 1015.8
20210726194331 91 289 2.0 5.0 0.00 0.00 0.00 43 1015.7
20210726193831 91 282 0.0 5.0 0.00 0.00 0.00 43 1015.8
20210726193328 90 166 3.0 4.0 0.00 0.00 0.00 42 1015.7
20210726192825 90 289 2.0 5.0 0.00 0.00 0.00 45 1015.9
20210726192324 90 244 4.0 5.0 0.00 0.00 0.00 39 1015.9
20210726191820 90 281 3.0 5.0 0.00 0.00 0.00 41 1015.8
20210726191318 90 303 2.0 6.0 0.00 0.00 0.00 42 1015.6
20210726190814 91 270 2.0 2.0 0.00 0.00 0.00 41 1015.8
20210726190314 90 270 0.0 4.0 0.00 0.00 0.00 45 1015.8
20210726185814 90 278 0.0 4.0 0.00 0.00 0.00 39 1015.8
20210726185312 90 180 0.0 4.0 0.00 0.00 0.00 38 1015.9
20210726184810 90 259 3.0 5.0 0.00 0.00 0.00 42 1015.8
20210726184308 90 332 0.0 4.0 0.00 0.00 0.00 41 1015.8
20210726183807 90 281 2.0 7.0 0.00 0.00 0.00 45 1015.8
20210726183308 90 279 4.0 6.0 0.00 0.00 0.00 42 1015.9
20210726182807 89 253 3.0 5.0 0.00 0.00 0.00 40 1016.0
20210726182306 89 251 2.0 5.0 0.00 0.00 0.00 44 1016.1
20210726181804 89 270 3.0 4.0 0.00 0.00 0.00 43 1016.2
20210726181303 89 289 3.0 5.0 0.00 0.00 0.00 43 1016.1
20210726180802 89 348 2.0 4.0 0.00 0.00 0.00 44 1016.0
20210726180259 90 339 2.0 3.0 0.00 0.00 0.00 42 1016.3
20210726175755 89 270 1.0 4.0 0.00 0.00 0.00 42 1016.1
20210726175255 89 66 0.0 3.0 0.00 0.00 0.00 42 1016.3
20210726174749 89 286 2.0 5.0 0.00 0.00 0.00 46 1015.8
20210726174247 90 274 3.0 4.0 0.00 0.00 0.00 39 1016.3
20210726173746 89 294 2.0 3.0 0.00 0.00 0.00 38 1016.2
20210726173246 89 289 3.0 4.0 0.00 0.00 0.00 38 1016.4
20210726172745 89 280 3.0 5.0 0.00 0.00 0.00 39 1016.4
20210726172245 90 282 0.0 3.0 0.00 0.00 0.00 40 1016.3
20210726171743 89 180 1.0 6.0 0.00 0.00 0.00 43 1016.4
20210726171242 89 29 1.0 3.0 0.00 0.00 0.00 39 1016.4
20210726170739 89 45 2.0 6.0 0.00 0.00 0.00 40 1016.4
20210726170238 89 225 2.0 4.0 0.00 0.00 0.00 37 1016.5
20210726165738 88 23 0.0 3.0 0.00 0.00 0.00 40 1016.2
20210726165236 88 180 0.0 4.0 0.00 0.00 0.00 42 1016.5
20210726164734 88 71 0.0 2.0 0.00 0.00 0.00 42 1016.5
20210726164233 88 19 0.0 3.0 0.00 0.00 0.00 43 1016.3
20210726163731 88 77 1.0 3.0 0.00 0.00 0.00 39 1016.3
20210726163230 89 0 0.0 2.0 0.00 0.00 0.00 39 1016.4
20210726162728 88 56 2.0 2.0 0.00 0.00 0.00 40 1016.3
20210726162226 89 195 0.0 1.0 0.00 0.00 0.00 47 1016.2
20210726161721 87 120 2.0 3.0 0.00 0.00 0.00 38 1016.0
20210726161219 87 99 1.0 4.0 0.00 0.00 0.00 42 1015.8
20210726160718 88 199 2.0 3.0 0.00 0.00 0.00 42 1016.2
20210726160217 88 294 0.0 2.0 0.00 0.00 0.00 50 1015.9
20210726155715 88 258 0.0 3.0 0.00 0.00 0.00 46 1016.1
20210726155214 88 203 0.0 2.0 0.00 0.00 0.00 43 1016.1
20210726154712 87 195 0.0 3.0 0.00 0.00 0.00 46 1016.3
20210726154211 87 90 0.0 4.0 0.00 0.00 0.00 41 1016.1
20210726153710 88 180 0.0 1.0 0.00 0.00 0.00 49 1016.0
20210726153209 87 69 0.0 2.0 0.00 0.00 0.00 53 1016.2
20210726152708 86 225 0.0 2.0 0.00 0.00 0.00 51 1016.2
20210726152208 85 270 0.0 5.0 0.00 0.00 0.00 52 1016.3
20210726151706 86 96 2.0 3.0 0.00 0.00 0.00 52 1016.2
20210726151205 86 111 0.0 3.0 0.00 0.00 0.00 56 1016.1
20210726150703 85 14 1.0 3.0 0.00 0.00 0.00 58 1016.1
20210726150202 85 225 2.0 2.0 0.00 0.00 0.00 56 1016.1
20210726145700 83 270 1.0 2.0 0.00 0.00 0.00 58 1016.1
20210726145158 82 262 0.0 3.0 0.00 0.00 0.00 60 1015.9
20210726144656 82 294 1.0 3.0 0.00 0.00 0.00 58 1016.3
20210726144156 83 340 0.0 2.0 0.00 0.00 0.00 58 1016.0
20210726143655 83 352 0.0 2.0 0.00 0.00 0.00 61 1016.3
20210726143154 82 262 1.0 2.0 0.00 0.00 0.00 61 1016.5
20210726142653 81 286 1.0 2.0 0.00 0.00 0.00 62 1016.4
20210726142151 81 300 2.0 3.0 0.00 0.00 0.00 62 1016.4
20210726141650 80 262 1.0 2.0 0.00 0.00 0.00 61 1016.2
20210726141150 80 240 0.0 5.0 0.00 0.00 0.00 61 1016.2
20210726140648 80 270 0.0 3.0 0.00 0.00 0.00 62 1016.1
20210726140148 79 277 1.0 4.0 0.00 0.00 0.00 63 1016.1
20210726135645 79 248 2.0 3.0 0.00 0.00 0.00 61 1016.1
20210726135145 79 258 2.0 3.0 0.00 0.00 0.00 60 1016.3
20210726134644 78 264 2.0 5.0 0.00 0.00 0.00 61 1016.0
20210726134142 79 281 0.0 2.0 0.00 0.00 0.00 62 1016.2
20210726133640 77 270 1.0 5.0 0.00 0.00 0.00 62 1016.1
20210726133140 77 303 2.0 4.0 0.00 0.00 0.00 62 1015.9
20210726132638 77 331 0.0 4.0 0.00 0.00 0.00 63 1016.0
20210726132138 77 286 1.0 4.0 0.00 0.00 0.00 64 1015.9
20210726131636 76 315 0.0 3.0 0.00 0.00 0.00 64 1016.0
20210726131136 76 259 3.0 3.0 0.00 0.00 0.00 66 1015.9
20210726130635 76 246 3.0 4.0 0.00 0.00 0.00 65 1015.8
20210726130131 76 283 2.0 3.0 0.00 0.00 0.00 66 1016.1
20210726125631 75 270 2.0 3.0 0.00 0.00 0.00 69 1016.1
20210726125130 74 311 3.0 3.0 0.00 0.00 0.00 71 1016.1
20210726124627 73 283 0.0 3.0 0.00 0.00 0.00 71 1015.9
20210726124125 73 270 2.0 2.0 0.00 0.00 0.00 73 1016.1
20210726123624 72 270 0.0 2.0 0.00 0.00 0.00 75 1016.0
20210726123122 72 262 0.0 1.0 0.00 0.00 0.00 73 1016.0
20210726122621 71 319 2.0 3.0 0.00 0.00 0.00 75 1015.8
20210726122119 71 303 0.0 3.0 0.00 0.00 0.00 75 1015.9
20210726121617 71 300 0.0 2.0 0.00 0.00 0.00 75 1015.6
20210726121117 70 345 0.0 2.0 0.00 0.00 0.00 76 1015.6
20210726120616 70 283 0.0 2.0 0.00 0.00 0.00 75 1015.4
20210726120114 71 0 0.0 0.0 0.00 0.00 0.00 76 1015.4
20210726115613 70 0 0.0 1.0 0.00 0.00 0.00 78 1015.2
20210726115111 70 180 0.0 0.0 0.00 0.00 0.00 77 1015.0
20210726114607 70 180 0.0 0.0 0.00 0.00 0.00 79 1015.2
20210726114106 70 180 0.0 0.0 0.00 0.00 0.00 76 1014.9
20210726113600 70 180 0.0 0.0 0.00 0.00 0.00 76 1015.2
20210726113100 68 180 0.0 0.0 0.00 0.00 0.00 82 1015.1
20210726112558 66 180 0.0 0.0 0.00 0.00 0.00 86 1015.1
20210726112058 64 180 0.0 0.0 0.00 0.00 0.00 92 1015.1
20210726111556 64 180 0.0 0.0 0.00 0.00 0.00 92 1015.2
20210726111050 63 180 0.0 0.0 0.00 0.00 0.00 92 1015.2
20210726110546 63 180 0.0 0.0 0.00 0.00 0.00 93 1015.2
20210726110045 63 180 0.0 0.0 0.00 0.00 0.00 92 1015.3
20210726105544 63 180 0.0 0.0 0.00 0.00 0.00 92 1015.3
20210726105042 63 180 0.0 0.0 0.00 0.00 0.00 91 1015.3
20210726104540 64 180 0.0 0.0 0.00 0.00 0.00 91 1015.1
20210726104039 63 180 0.0 0.0 0.00 0.00 0.00 91 1015.1
20210726103539 63 180 0.0 0.0 0.00 0.00 0.00 92 1015.1
20210726103038 64 180 0.0 0.0 0.00 0.00 0.00 92 1014.9
20210726102537 64 180 0.0 0.0 0.00 0.00 0.00 91 1015.0
20210726102036 64 180 0.0 0.0 0.00 0.00 0.00 91 1014.9
20210726101535 64 215 0.0 0.0 0.00 0.00 0.00 91 1015.1
20210726101034 64 172 0.0 0.0 0.00 0.00 0.00 91 1015.0
20210726100533 64 172 0.0 0.0 0.00 0.00 0.00 91 1015.0
20210726100033 64 172 0.0 0.0 0.00 0.00 0.00 91 1014.9
20210726095530 64 165 0.0 1.0 0.00 0.00 0.00 91 1014.7
20210726095030 64 180 0.0 0.0 0.00 0.00 0.00 91 1014.6
20210726094528 64 180 0.0 0.0 0.00 0.00 0.00 91 1014.6
20210726094028 64 180 0.0 0.0 0.00 0.00 0.00 90 1014.5
20210726093524 65 180 0.0 0.0 0.00 0.00 0.00 90 1014.4
20210726093024 65 180 0.0 0.0 0.00 0.00 0.00 89 1014.4
20210726092523 66 180 0.0 0.0 0.00 0.00 0.00 88 1014.5
20210726092023 66 180 0.0 0.0 0.00 0.00 0.00 87 1014.3
20210726091523 66 180 0.0 0.0 0.00 0.00 0.00 87 1014.2
20210726091022 66 180 0.0 0.0 0.00 0.00 0.00 87 1014.4
20210726090521 66 180 0.0 1.0 0.00 0.00 0.00 87 1014.2
20210726090020 66 254 0.0 0.0 0.00 0.00 0.00 88 1014.0
20210726085518 67 254 0.0 0.0 0.00 0.00 0.00 87 1014.3
20210726085018 67 254 0.0 0.0 0.00 0.00 0.00 86 1014.4
20210726084517 67 254 0.0 0.0 0.00 0.00 0.00 87 1014.3
20210726084015 67 254 0.0 0.0 0.00 0.00 0.00 87 1014.2
20210726083514 67 254 0.0 0.0 0.00 0.00 0.00 86 1014.1
20210726083012 68 254 0.0 0.0 0.00 0.00 0.00 85 1014.1
20210726082510 68 194 0.0 0.0 0.00 0.00 0.00 84 1014.1
20210726082009 68 198 0.0 2.0 0.00 0.00 0.00 84 1014.1
20210726081508 68 180 0.0 1.0 0.00 0.00 0.00 84 1014.1